OPS 4682 DEB, 38400

Orbit data source: Space-Track

OPS 4682 DEB, 38400 is space debris in LEO originally from a launch on Sat, 03 Apr 1965 UTC launched from the Air Force Western Test Range (AFWTR). Debris objects in space refer to the collection of defunct objects orbiting the Earth. Examples of debris include non-operational satellites, rocket bodies, and fragments generated from explosions, collisions, or faulty payload assembly.

Loading next visibility...
Identifier
38400, 1965-027DD
Orbit
LEO
Country
Flag of USUS
Related business
Manufacturer
Unknown
Mission
Spacecraft
Bus & Motor
Unknown
Mass
Unknown
Launch date (UTC)
1965-04-03 (61 years ago)
Launch vehicle
Unknown
Launch site
Air Force Western Test Range (AFWTR)
Object type
Payload
Rocket body
Debris
Shape & HBR
Unknown shape, 0.1 m
Radar Cross Section
Small (<0.1 m²)

Expand to show TLE details & history
Last TLE update: 2 days ago

TLE from 2 days ago
0 OPS 4682 DEB
1 38400U 65027DD  26105.99038051  .00000077  00000-0  23471-3 0  9998
2 38400  90.2581  15.7577 0031609 160.8122 199.4197 12.98451892606194
Epoch: 2026-04-15T23:46Z
TLE epoch observation values (Epoch: 2026-04-15T23:46:08.876Z)
Latitude
-0.00004°
Longitude
175.07637°
Altitude
1,293.847 km
Speed
7.199 km/s
True Right ascension
01h 03m 01s
True Declination
0° 00' 00"
Sunlit
Object was in daylight at epoch
Visualization orbit readout
Latitude
Unknown
Longitude
Unknown
Altitude
Unknown
Speed
Unknown
Apparent Right ascension
Unknown
Apparent Declination
Unknown
Sunlit
N/A
Visualization observer readout
Local Sidereal Time
00:42:30
Azimuth
Unknown
Elevation
Unknown
Doppler factor
Unknown
Orbital elements
Apogee altitude
1,289.448 km
Perigee altitude
1,241.127 km
Semi-major axis
7,643.425 km
Eccentricity
0.00316
Inclination
90.2581°
RAAN
15.7577°
Arg. of periapsis
160.8122°
True anomaly
199.29972°
Mean anomaly
199.4197°
Eccentric anomaly
199.35966°
Mean motion
3.24796 °/min
Orbital period
110.84 mins
BSTAR
0.00023471
Loading maneuver chart data...
Computing Atmospheric mass density...
Loading historical data...
Loading historical data...
Loading historical data...
Loading historical data...
Loading historical data...
Loading historical data...
Loading historical data...

Documentation

Showing up to 5 results
|